Location: Newark
(39.0083°N, 20.7336°E)
Time: 19:43:03
(UTC+00:00)

ISS - Visible Passes

Search period start: 25 September 2021 00:00
Search period end: 05 October 2021 00:00
Orbit: 417 x 423 km, 51.6° (Epoch: 25 September)

Date Brightness Start Highest point End Pass type
(mag) Time Alt. Az. Time Alt. Az. Time Alt. Az.
27 Sep -1.0 18:20:44 10° NNW 18:21:47 12° N 18:21:47 12° N visible
28 Sep -1.1 17:33:48 10° N 17:34:46 11° N 17:35:44 10° NNE visible
29 Sep -1.3 18:22:22 10° NNW 18:23:43 17° N 18:23:43 17° N visible
30 Sep -1.7 17:35:20 10° NNW 17:37:30 16° NNE 17:38:14 15° NE visible
01 Oct -1.3 16:48:20 10° NNW 16:49:58 13° NNE 16:51:36 10° NE visible
01 Oct -1.7 18:24:12 10° NW 18:25:48 24° NNW 18:25:48 24° NNW visible
02 Oct -2.6 17:37:03 10° NW 17:40:04 29° NNE 17:40:26 29° NE visible
03 Oct -2.1 16:49:58 10° NNW 16:52:37 21° NNE 16:55:09 11° ENE visible
03 Oct -1.7 18:26:21 10° WNW 18:28:08 28° WNW 18:28:08 28° WNW visible
04 Oct -3.9 17:39:01 10° NW 17:42:23 79° NE 17:42:57 58° ESE visible
